M I D A S
Marine Information and Data Acquisition System
Tripno 654 of the Zeeleeuw from 2004-02-24 07:13:44 to 2004-02-24 14:12:10
Back to CruiseResearch ActivitiesStationsMapUnderway DataData graphs

EquipmentUnitsComments
TimeDGPSUTC
LatitudeDGPSDM.mWGS84
LongitudeDGPSDM.mWGS84
SpeedMeteo Stationm/sRelative wind speed
DirectionMeteo StationdegRelative wind direction
TemperatureMeteo Stationdeg CelciusAir temperature
PressureMeteo StationPaAtmospheric pressure
HumidityMeteo Station%Relative humidity
Missing or incorrect values are displayed as -999
Metereological data collected by the RV Zeeleeuw from 2004-02-24 07:13:44 to 2004-02-24 14:12:10
Time Latitude Longitude Speed Direction Temperature Pressure Humidity
2004-02-24 07:14 51°13.593 2°56.109 4.5 174 3.9 101800 64
2004-02-24 07:15 51°13.593 2°56.11 4.9 160 4 101800 65
2004-02-24 07:16 51°13.593 2°56.11 2.7 179 4 101800 65
2004-02-24 07:17 51°13.604 2°56.067 4.4 177 4 101800 66
2004-02-24 07:18 51°13.64 2°55.955 5.7 170 4.2 101800 67
2004-02-24 07:19 51°13.678 2°55.823 5.1 197 4.2 101800 66
2004-02-24 07:20 51°13.696 2°55.771 2.6 273 4.3 101800 66
2004-02-24 07:21 51°13.709 2°55.775 2.5 259 4.3 101800 65
2004-02-24 07:22 51°13.727 2°55.746 4.4 343 4.2 101800 66
2004-02-24 07:23 51°13.811 2°55.653 2.9 16 4.1 101800 66
2004-02-24 07:24 51°13.93 2°55.551 5.9 343 4.1 101790 66
2004-02-24 07:25 51°14.063 2°55.449 9.7 325 4 101790 66
2004-02-24 07:26 51°14.203 2°55.341 13.3 336 4 101770 67
2004-02-24 07:27 51°14.33 2°55.134 11.5 338 4 101770 68
2004-02-24 07:28 51°14.448 2°54.875 14.1 341 4 101730 69
2004-02-24 07:29 51°14.544 2°54.676 12.5 319 4 101740 69
2004-02-24 07:30 51°14.628 2°54.525 11.3 323 4 101740 69
2004-02-24 07:31 51°14.702 2°54.373 13.4 326 4.1 101750 70
2004-02-24 07:32 51°14.787 2°54.244 11.2 316 4 101740 69
2004-02-24 07:33 51°14.891 2°54.116 13.7 322 4 101740 70
2004-02-24 07:34 51°15.054 2°53.908 14 334 4 101690 70
2004-02-24 07:35 51°15.235 2°53.694 12.8 327 4 101700 69
2004-02-24 07:36 51°15.44 2°53.531 13.6 320 4 101700 68
2004-02-24 07:37 51°15.645 2°53.361 16.3 324 4 101690 69
2004-02-24 07:38 51°15.85 2°53.189 14.6 322 4 101700 69
2004-02-24 07:39 51°16.063 2°53.061 13.1 314 4 101690 68
2004-02-24 07:40 51°16.279 2°52.945 13.8 320 4.1 101690 69
2004-02-24 07:41 51°16.493 2°52.825 14.9 315 4 101690 67
2004-02-24 07:42 51°16.707 2°52.703 13.4 316 4 101690 67
2004-02-24 07:43 51°16.918 2°52.584 15.2 321 4 101680 66
2004-02-24 07:44 51°17.132 2°52.469 14.3 322 3.9 101690 64
2004-02-24 07:45 51°17.349 2°52.348 15.7 319 4 101690 63
2004-02-24 07:46 51°17.541 2°52.152 16.3 332 4 101670 63
2004-02-24 07:47 51°17.684 2°51.864 16.5 337 4 101680 63
2004-02-24 07:48 51°17.823 2°51.57 17.4 341 4 101690 63
2004-02-24 07:49 51°17.965 2°51.272 16.6 343 4 101690 63
2004-02-24 07:50 51°18.108 2°50.973 15.3 340 4 101680 63
2004-02-24 07:51 51°18.251 2°50.678 15.3 340 4 101680 63
2004-02-24 07:52 51°18.395 2°50.385 17 345 4 101680 62
2004-02-24 07:53 51°18.539 2°50.097 16.1 339 4 101680 60
2004-02-24 07:54 51°18.674 2°49.798 17.1 342 4 101680 61
2004-02-24 07:55 51°18.807 2°49.496 16 337 4 101680 61
2004-02-24 07:56 51°18.943 2°49.188 16.6 339 4 101670 63
2004-02-24 07:57 51°19.081 2°48.881 15.3 337 4 101670 62
2004-02-24 07:58 51°19.216 2°48.572 17.9 342 4 101680 63
2004-02-24 07:59 51°19.348 2°48.266 17.6 343 4 101670 63
2004-02-24 08:00 51°19.47 2°47.951 17.3 337 3.9 101670 62
2004-02-24 08:01 51°19.593 2°47.634 16 340 3.9 101670 63
2004-02-24 08:02 51°19.708 2°47.312 15.4 354 4 101670 63
2004-02-24 08:03 51°19.806 2°46.972 15.6 347 3.9 101680 62
2004-02-24 08:04 51°19.891 2°46.625 16.2 349 3.9 101670 62
2004-02-24 08:05 51°19.961 2°46.263 17.4 352 3.9 101670 63
2004-02-24 08:06 51°20.032 2°45.901 18.8 351 3.9 101680 62
2004-02-24 08:07 51°20.103 2°45.535 17 352 3.9 101700 62
2004-02-24 08:08 51°20.174 2°45.171 16.1 354 3.9 101690 62
2004-02-24 08:09 51°20.227 2°44.805 17.4 359 3.9 101690 63
2004-02-24 08:10 51°20.278 2°44.442 18 353 3.9 101680 63
2004-02-24 08:11 51°20.324 2°44.078 17.4 355 3.9 101700 62
2004-02-24 08:12 51°20.364 2°43.712 17.9 353 3.9 101690 62
2004-02-24 08:13 51°20.385 2°43.398 12.8 3 3.9 101710 62
2004-02-24 08:14 51°20.375 2°43.245 12.5 19 4 101710 63
2004-02-24 08:15 51°20.361 2°43.161 10.9 6 3.9 101720 63
2004-02-24 08:16 51°20.354 2°43.108 10.9 347 3.9 101730 62
2004-02-24 08:17 51°20.401 2°42.923 17.9 356 3.9 101700 62
2004-02-24 08:18 51°20.467 2°42.575 16.9 355 3.9 101690 64
2004-02-24 08:19 51°20.532 2°42.209 15.7 354 3.9 101670 63
2004-02-24 08:20 51°20.598 2°41.84 18.5 353 3.9 101690 64
2004-02-24 08:21 51°20.653 2°41.468 18.1 355 3.9 101690 61
2004-02-24 08:22 51°20.695 2°41.096 17.4 352 3.9 101700 60
2004-02-24 08:23 51°20.734 2°40.723 18.3 358 4 101710 62
2004-02-24 08:24 51°20.774 2°40.352 18.1 2 3.9 101690 60
2004-02-24 08:25 51°20.803 2°39.974 19 356 4 101700 60
2004-02-24 08:26 51°20.833 2°39.596 18.4 1 4 101710 61
2004-02-24 08:27 51°20.863 2°39.218 17.6 354 4 101690 62
2004-02-24 08:28 51°20.894 2°38.841 17.7 358 4 101710 61
2004-02-24 08:29 51°20.923 2°38.46 17.5 360 4 101710 62
2004-02-24 08:30 51°20.949 2°38.077 17.1 4 4 101690 61
2004-02-24 08:31 51°20.965 2°37.69 16.9 356 4 101700 63
2004-02-24 08:32 51°20.983 2°37.303 17.1 355 4.1 101700 63
2004-02-24 08:33 51°21.001 2°36.916 19.2 358 4 101690 62
2004-02-24 08:34 51°21.019 2°36.528 17.9 5 4 101700 62
2004-02-24 08:35 51°21.037 2°36.137 18.7 5 4 101700 62
2004-02-24 08:36 51°21.055 2°35.747 19 3 4 101700 62
2004-02-24 08:37 51°21.117 2°35.389 15.3 328 4 101690 63
2004-02-24 08:38 51°21.323 2°35.258 14.8 314 4 101680 63
2004-02-24 08:39 51°21.54 2°35.171 14 320 4 101700 63
2004-02-24 08:40 51°21.757 2°35.095 15.1 314 4.1 101680 64
2004-02-24 08:41 51°21.977 2°35.026 12.2 313 4.1 101680 64
2004-02-24 08:42 51°22.198 2°34.961 14 313 4 101670 63
2004-02-24 08:43 51°22.42 2°34.895 11.8 314 4 101690 63
2004-02-24 08:44 51°22.633 2°34.765 15.5 316 4.1 101670 64
2004-02-24 08:45 51°22.829 2°34.574 17.2 322 4.1 101670 63
2004-02-24 08:46 51°22.951 2°34.271 16.6 349 4.1 101670 64
2004-02-24 08:47 51°22.997 2°33.897 17.6 354 4.2 101670 65
2004-02-24 08:48 51°23.02 2°33.513 17.6 358 4.2 101670 66
2004-02-24 08:49 51°23.035 2°33.124 18.2 351 4.1 101670 65
2004-02-24 08:50 51°23.034 2°32.73 17.4   4.1 101670 65
2004-02-24 08:51 51°23.032 2°32.334 18.5 3 4.2 101660 66
2004-02-24 08:52 51°23.034 2°31.937 18.4 7 4.1 101640 64
2004-02-24 08:53 51°23.034 2°31.538 18.2 5 4.1 101660 64
2004-02-24 08:54 51°23.036 2°31.137 17.5 356 4.2 101650 65
2004-02-24 08:55 51°23.033 2°30.739 18.2 1 4.3 101650 66
2004-02-24 08:56 51°22.996 2°30.344 17.5 10 4.3 101640 66
2004-02-24 08:57 51°22.961 2°29.95 17.4 5 4.3 101650 66
2004-02-24 08:58 51°22.923 2°29.559 17.9 5 4.3 101650 65
2004-02-24 08:59 51°22.888 2°29.169 17.1 5 4.3 101650 66
2004-02-24 09:00 51°22.853 2°28.778 17.2 7 4.3 101650 66
2004-02-24 09:01 51°22.816 2°28.388 16.2 359 4.4 101650 67
2004-02-24 09:02 51°22.775 2°27.997 16.3 5 4.4 101670 67
2004-02-24 09:03 51°22.735 2°27.604 17.9 4 4.4 101650 67
2004-02-24 09:04 51°22.694 2°27.212 18 1 4.4 101640 66
2004-02-24 09:05 51°22.663 2°26.819 20.7 358 4.4 101670 66
2004-02-24 09:06 51°22.654 2°26.426 18.9 2 4.4 101660 64
2004-02-24 09:07 51°22.695 2°26.042 18.9 341 4.4 101650 64
2004-02-24 09:08 51°22.823 2°25.729 15.5 320 4.4 101620 65
2004-02-24 09:09 51°23.01 2°25.512 16 42 4.5 101630 66
2004-02-24 09:10 51°23.224 2°25.416 13.7 298 4.4 101640 65
2004-02-24 09:11 51°23.443 2°25.418 14.1 300 4.5 101660 65
2004-02-24 09:12 51°23.662 2°25.436 11.6 297 4.5 101660 66
2004-02-24 09:13 51°23.875 2°25.472 11.5 294 4.5 101660 66
2004-02-24 09:14 51°24.09 2°25.497 11.8 302 4.5 101650 66
2004-02-24 09:15 51°24.301 2°25.521 15.1 290 4.5 101640 67
2004-02-24 09:16 51°24.511 2°25.546 14.3 294 4.5 101650 66
2004-02-24 09:17 51°24.722 2°25.567 13.7 282 4.6 101650 66
2004-02-24 09:18 51°24.933 2°25.59 12.8 296 4.6 101650 68
2004-02-24 09:19 51°25.143 2°25.636 12.6 280 4.7 101630 67
2004-02-24 09:20 51°25.35 2°25.684 12.1 296 4.7 101670 68
2004-02-24 09:21 51°25.559 2°25.735 10.2 290 4.7 101670 67
2004-02-24 09:22 51°25.769 2°25.782 11.5 287 4.7 101640 68
2004-02-24 09:23 51°25.977 2°25.826 11 290 4.7 101630 68
2004-02-24 09:24 51°26.186 2°25.87 12.1 275 4.7 101640 69
2004-02-24 09:25 51°26.395 2°25.912 11 292 4.7 101640 68
2004-02-24 09:26 51°26.606 2°25.959 11.2 293 4.7 101630 68
2004-02-24 09:27 51°26.815 2°26.005 10.8 294 4.6 101640 68
2004-02-24 09:28 51°27.026 2°26.053 13.9 292 4.6 101620 69
2004-02-24 09:29 51°27.235 2°26.105 10.8 293 4.6 101630 69
2004-02-24 09:30 51°27.437 2°26.18 12 290 4.7 101620 70
2004-02-24 09:31 51°27.637 2°26.279 9.8 286 4.7 101630 70
2004-02-24 09:32 51°27.834 2°26.393 9.6 280 4.7 101640 70
2004-02-24 09:33 51°28.032 2°26.502 8.5 276 4.7 101630 71
2004-02-24 09:34 51°28.229 2°26.607 11.9 275 4.7 101630 70
2004-02-24 09:35 51°28.428 2°26.704 10.1 279 4.6 101650 70
2004-02-24 09:36 51°28.616 2°26.789 10.9 276 4.6 101640 70
2004-02-24 09:37 51°28.752 2°26.798 12.4 280 4.6 101610 70
2004-02-24 09:38 51°28.8 2°26.786 11 242 4.6 101630 70
2004-02-24 09:39 51°28.799 2°26.781 13.9 261 4.5 101630 69
2004-02-24 09:40 51°28.792 2°26.769 11.7 267 4.5 101630 70
2004-02-24 09:41 51°28.782 2°26.759 12.5 279 4.5 101620 70
2004-02-24 09:42 51°28.771 2°26.751 11.6 283 4.6 101610 71
2004-02-24 09:43 51°28.759 2°26.745 12.8 275 4.6 101610 71
2004-02-24 09:44 51°28.743 2°26.742 12.5 266 4.5 101610 71
2004-02-24 09:45 51°28.737 2°26.736 13.1 279 4.5 101620 71
2004-02-24 09:46 51°28.846 2°26.623 16.9 315 4.5 101590 70
2004-02-24 09:47 51°29.01 2°26.405 15.6 317 4.5 101550 70
2004-02-24 09:48 51°29.184 2°26.214 14.4 308 4.4 101550 69
2004-02-24 09:49 51°29.371 2°26.062 13.6 309 4.4 101580 70
2004-02-24 09:50 51°29.56 2°25.922 15.5 312 4.4 101560 70
2004-02-24 09:51 51°29.749 2°25.776 16.2 313 4.5 101590 71
2004-02-24 09:52 51°29.938 2°25.629 12.1 42 4.5 101580 71
2004-02-24 09:53 51°30.124 2°25.483 15.7 304 4.5 101570 71
2004-02-24 09:54 51°30.317 2°25.383 12.6 308 4.5 101570 71
2004-02-24 09:55 51°30.512 2°25.287 15 304 4.5 101570 71
2004-02-24 09:56 51°30.705 2°25.19 14.7 296 4.5 101540 71
2004-02-24 09:57 51°30.901 2°25.105 13.4 306 4.5 101570 71
2004-02-24 09:58 51°31.099 2°25.049 12.2 287 4.5 101570 71
2004-02-24 09:59 51°31.294 2°25.094 10.7 283 4.5 101580 71
2004-02-24 10:00 51°31.486 2°25.164 8.8 285 4.5 101570 72
2004-02-24 10:01 51°31.681 2°25.229 10.2 288 4.6 101580 72
2004-02-24 10:02 51°31.872 2°25.307 11.6 278 4.6 101580 72
2004-02-24 10:03 51°32.059 2°25.4 10.3 280 4.6 101580 72
2004-02-24 10:04 51°32.251 2°25.492 8.7 281 4.6 101570 72
2004-02-24 10:05 51°32.434 2°25.608 10 272 4.6 101590 72
2004-02-24 10:06 51°32.615 2°25.736 9.9 275 4.5 101560 72
2004-02-24 10:07 51°32.795 2°25.866 10 267 4.5 101560 72
2004-02-24 10:08 51°32.965 2°26.022 9.7 272 4.5 101580 72
2004-02-24 10:09 51°33.137 2°26.181 8.3 284 4.5 101570 72
2004-02-24 10:10 51°33.308 2°26.34 9.7 272 4.5 101550 72
2004-02-24 10:11 51°33.481 2°26.502 10.4 268 4.5 101560 73
2004-02-24 10:12 51°33.642 2°26.684 4.5 258 4.6 101570 73
2004-02-24 10:13 51°33.796 2°26.872 3.7 252 4.5 101550 73
2004-02-24 10:14 51°33.953 2°27.06 4.4 257 4.5 101550 73
2004-02-24 10:15 51°34.114 2°27.247 9.7 264 4.6 101550 74
2004-02-24 10:16 51°34.276 2°27.431 7.2 262 4.6 101550 73
2004-02-24 10:17 51°34.441 2°27.608 6.6 264 4.6 101560 73
2004-02-24 10:18 51°34.599 2°27.793 5.9 263 4.6 101550 73
2004-02-24 10:19 51°34.755 2°27.983 10.3 261 4.5 101540 73
2004-02-24 10:20 51°34.912 2°28.165 6.7 258 4.5 101530 73
2004-02-24 10:21 51°35.068 2°28.352 5.2 262 4.4 101530 72
2004-02-24 10:22 51°35.232 2°28.533 5.7 255 4.5 101530 73
2004-02-24 10:23 51°35.391 2°28.714 5 255 4.5 101540 73
2004-02-24 10:24 51°35.553 2°28.886 5.1 265 4.5 101520 73
2004-02-24 10:25 51°35.717 2°29.056 7 256 4.7 101520 74
2004-02-24 10:26 51°35.883 2°29.234 6 254 4.6 101520 74
2004-02-24 10:27 51°36.05 2°29.415 6.8 264 4.6 101530 73
2004-02-24 10:28 51°36.214 2°29.591 6 241 4.5 101510 73
2004-02-24 10:29 51°36.375 2°29.764 8 268 4.6 101520 74
2004-02-24 10:30 51°36.538 2°29.937 5.8 254 4.6 101500 73
2004-02-24 10:31 51°36.696 2°30.115 6.8 246 4.6 101510 73
2004-02-24 10:32 51°36.861 2°30.286 4.2 243 4.6 101510 73
2004-02-24 10:33 51°37.024 2°30.455 6.8 260 4.8 101520 75
2004-02-24 10:34 51°37.182 2°30.636 7.1 257 4.8 101520 74
2004-02-24 10:35 51°37.345 2°30.813 5.2 252 4.8 101530 74
2004-02-24 10:36 51°37.506 2°30.993 8 262 4.8 101510 74
2004-02-24 10:37 51°37.665 2°31.173 11.7 268 4.8 101510 73
2004-02-24 10:38 51°37.827 2°31.344 6.3 261 4.8 101510 73
2004-02-24 10:39 51°37.987 2°31.523 6.2 254 4.8 101510 74
2004-02-24 10:40 51°38.146 2°31.706 9.8 266 4.9 101520 75
2004-02-24 10:41 51°38.306 2°31.884 4.8 256 4.9 101500 74
2004-02-24 10:42 51°38.466 2°32.067 6.7 228 4.8 101510 75
2004-02-24 10:43 51°38.626 2°32.246 6.2 260 4.8 101500 75
2004-02-24 10:44 51°38.792 2°32.415 9.1 270 4.8 101490 75
2004-02-24 10:45 51°38.955 2°32.583 6.4 247 4.8 101490 75
2004-02-24 10:46 51°39.118 2°32.759 4.8 253 4.8 101510 75
2004-02-24 10:47 51°39.282 2°32.927 5.2 253 4.8 101490 75
2004-02-24 10:48 51°39.444 2°33.101 5.8 236 4.7 101500 75
2004-02-24 10:49 51°39.611 2°33.278 6 244 4.8 101490 76
2004-02-24 10:50 51°39.777 2°33.447 8 266 4.9 101470 76
2004-02-24 10:51 51°39.944 2°33.62 5.9 249 4.8 101490 76
2004-02-24 10:52 51°40.101 2°33.8 7.5 237 4.9 101490 76
2004-02-24 10:53 51°40.266 2°33.963 9.6 266 4.9 101470 76
2004-02-24 10:54 51°40.431 2°34.133 5.8 248 4.9 101480 76
2004-02-24 10:55 51°40.6 2°34.298 8.1 241 5 101480 76
2004-02-24 10:56 51°40.768 2°34.468 7.5 261 4.9 101470 76
2004-02-24 10:57 51°40.933 2°34.635 6.2 236 5 101450 76
2004-02-24 10:58 51°41.1 2°34.805 4.8 253 5 101460 76
2004-02-24 10:59 51°41.269 2°34.974 5.6 254 5.1 101460 76
2004-02-24 11:00 51°41.433 2°35.147 5 258 5.1 101440 76
2004-02-24 11:01 51°41.605 2°35.312 6.8 258 5.1 101430 76
2004-02-24 11:02 51°41.773 2°35.477 4.2 256 5 101430 75
2004-02-24 11:03 51°41.938 2°35.648 9.2 260 5.1 101430 75
2004-02-24 11:04 51°42.103 2°35.816 6.1 251 5.1 101420 75
2004-02-24 11:05 51°42.266 2°35.991 8.9 260 5.2 101440 75
2004-02-24 11:06 51°42.409 2°36.203 7.6 241 5.1 101430 74
2004-02-24 11:07 51°42.5 2°36.483 4 180 5.1 101450 74
2004-02-24 11:08 51°42.426 2°36.79 11.9 113 5.1 101430 74
2004-02-24 11:09 51°42.263 2°37.057 9 108 5.2 101430 74
2004-02-24 11:10 51°42.1 2°37.329 11.8 111 5.3 101400 75
2004-02-24 11:11 51°41.977 2°37.634 8.5 112 5.2 101420 75
2004-02-24 11:12 51°41.851 2°37.93 11 107 5.2 101430 74
2004-02-24 11:13 51°41.721 2°38.236 7.5 111 5.2 101420 74
2004-02-24 11:14 51°41.593 2°38.543 8 101 5.2 101440 75
2004-02-24 11:15 51°41.467 2°38.852 11.2 103 5.2 101420 75
2004-02-24 11:16 51°41.341 2°39.151 11.3 107 5.2 101430 75
2004-02-24 11:17 51°41.204 2°39.452 10.7 110 5.2 101420 75
2004-02-24 11:18 51°41.08 2°39.756 9.1 109 5.3 101420 75
2004-02-24 11:19 51°40.952 2°40.058 10 121 5.3 101420 75
2004-02-24 11:20 51°40.84 2°40.37 8 104 5.3 101400 74
2004-02-24 11:21 51°40.725 2°40.68 8.9 119 5.3 101420 74
2004-02-24 11:22 51°40.616 2°40.99 8.2 120 5.3 101420 75
2004-02-24 11:23 51°40.497 2°41.301 8.8 117 5.2 101420 74
2004-02-24 11:24 51°40.383 2°41.61 11.3 119 5.3 101410 74
2004-02-24 11:25 51°40.275 2°41.922 11.4 117 5.2 101410 73
2004-02-24 11:26 51°40.167 2°42.228 8.1 113 5.2 101410 74
2004-02-24 11:27 51°40.056 2°42.542 7.1 120 5.2 101400 73
2004-02-24 11:28 51°39.94 2°42.858 10.6 119 5.2 101400 73
2004-02-24 11:29 51°39.824 2°43.17 9.7 117 5.2 101410 73
2004-02-24 11:30 51°39.704 2°43.485 9.5 120 5.2 101410 73
2004-02-24 11:31 51°39.595 2°43.806 8.2 108 5.2 101390 73
2004-02-24 11:32 51°39.443 2°44.095 11.2 113 5.3 101390 73
2004-02-24 11:33 51°39.273 2°44.353 12.3 97 5.3 101380 73
2004-02-24 11:34 51°39.077 2°44.572 14.6 83 5.3 101370 73
2004-02-24 11:35 51°38.863 2°44.745 11.1 72 5.3 101360 73
2004-02-24 11:36 51°38.625 2°44.804 17.5 54 5.4 101350 73
2004-02-24 11:37 51°38.427 2°44.608 18.7 23 5.3 101320 73
2004-02-24 11:38 51°38.286 2°44.288 20.2 12 5.3 101360 73
2004-02-24 11:39 51°38.189 2°43.949 22.2 6 5.3 101350 73
2004-02-24 11:40 51°38.147 2°43.578 19.8 356 5.3 101350 73
2004-02-24 11:41 51°38.135 2°43.205 19.1 1 5.3 101350 73
2004-02-24 11:42 51°38.122 2°42.838 18.1 359 5.3 101330 74
2004-02-24 11:43 51°38.106 2°42.473 19 352 5.3 101340 75
2004-02-24 11:44 51°38.089 2°42.104 19.4 2 5.3 101330 77
2004-02-24 11:45 51°38.119 2°41.757 19.9 343 5.2 101330 76
2004-02-24 11:46 51°38.181 2°41.415 19.2 349 5.2 101310 76
2004-02-24 11:47 51°38.206 2°41.052 20.6 352 5.2 101340 76
2004-02-24 11:48 51°38.188 2°40.678 18.9 5 5.1 101320 75
2004-02-24 11:49 51°38.08 2°40.341 19.9 24 5.1 101330 75
2004-02-24 11:50 51°37.901 2°40.092 17.4 28 5 101300 77
2004-02-24 11:51 51°37.679 2°39.925 20.9 43 5 101300 77
2004-02-24 11:52 51°37.464 2°39.777 20.2 44 4.9 101290 76
2004-02-24 11:53 51°37.251 2°39.624 18.6 39 5 101320 77
2004-02-24 11:54 51°37.036 2°39.464 19.3 40 4.9 101270 75
2004-02-24 11:55 51°36.819 2°39.291 17.7 44 5 101310 75
2004-02-24 11:56 51°36.601 2°39.119 20.2 38 5 101280 75
2004-02-24 11:57 51°36.379 2°38.97 19.2 47 5 101300 75
2004-02-24 11:58 51°36.15 2°38.843 17.9 48 5 101290 75
2004-02-24 11:59 51°35.917 2°38.729 17.1 49 5.1 101290 76
2004-02-24 12:00 51°35.686 2°38.621 19.9 43 5.1 101280 76
2004-02-24 12:01 51°35.45 2°38.586 16 82 5 101290 76
2004-02-24 12:02 51°35.236 2°38.752 13.2 98 5.1 101330 76
2004-02-24 12:03 51°35.03 2°38.944 11.7 101 5.1 101360 76
2004-02-24 12:04 51°34.827 2°39.139 12.3 100 5.1 101340 76
2004-02-24 12:05 51°34.627 2°39.347 10.4 98 5.1 101340 76
2004-02-24 12:06 51°34.43 2°39.556 14.2 95 5.1 101350 75
2004-02-24 12:07 51°34.232 2°39.758 13.8 99 5.1 101330 75
2004-02-24 12:08 51°34.028 2°39.951 11 87 5.1 101340 75
2004-02-24 12:09 51°33.796 2°40.076 12.4 81 5.1 101310 75
2004-02-24 12:10 51°33.55 2°40.1 17 56 5.1 101290 75
2004-02-24 12:11 51°33.3 2°40.047 16.6 49 5.1 101280 74
2004-02-24 12:12 51°33.051 2°39.994 18.7 59 5.1 101290 74
2004-02-24 12:13 51°32.805 2°39.921 17.2 56 5.1 101280 73
2004-02-24 12:14 51°32.562 2°39.836 17.4 54 5.1 101310 74
2004-02-24 12:15 51°32.318 2°39.756 17.6 55 5.2 101280 73
2004-02-24 12:16 51°32.073 2°39.679 18.7 51 5.2 101270 73
2004-02-24 12:17 51°31.828 2°39.599 15.5 50 5.2 101270 73
2004-02-24 12:18 51°31.586 2°39.521 16.1 51 5.2 101260 72
2004-02-24 12:19 51°31.341 2°39.442 16.9 55 5.2 101270 73
2004-02-24 12:20 51°31.095 2°39.361 19.5 47 5.2 101300 73
2004-02-24 12:21 51°30.849 2°39.282 17.4 50 5.2 101270 73
2004-02-24 12:22 51°30.605 2°39.202 19.6 43 5.2 101280 72
2004-02-24 12:23 51°30.378 2°39.057 19.5 36 5.1 101270 72
2004-02-24 12:24 51°30.159 2°38.881 18.1 34 5.1 101280 72
2004-02-24 12:25 51°29.959 2°38.667 18.9 30 5.1 101270 71
2004-02-24 12:26 51°29.772 2°38.439 19.6 25 5.1 101260 71
2004-02-24 12:27 51°29.596 2°38.185 16.8 26 5.2 101250 71
2004-02-24 12:28 51°29.419 2°37.929 18.1 25 5.2 101270 71
2004-02-24 12:29 51°29.243 2°37.675 20.9 23 5.2 101270 72
2004-02-24 12:30 51°29.064 2°37.421 20.9 24 5.3 101280 73
2004-02-24 12:31 51°28.883 2°37.163 18 24 5.3 101260 72
2004-02-24 12:32 51°28.683 2°36.985 18.5 42 5.1 101270 72
2004-02-24 12:33 51°28.441 2°36.91 17.5 60 5.1 101250 71
2004-02-24 12:34 51°28.202 2°36.926 16.3 58 5.1 101270 71
2004-02-24 12:35 51°27.963 2°36.982 16.5 57 5.1 101280 72
2004-02-24 12:36 51°27.731 2°37.069 13.8 70 5.1 101280 71
2004-02-24 12:37 51°27.504 2°37.193 16.6 86 5.1 101240 70
2004-02-24 12:38 51°27.286 2°37.353 13.7 80 5.1 101300 71
2004-02-24 12:39 51°27.073 2°37.52 13.2 79 5.2 101290 71
2004-02-24 12:40 51°26.855 2°37.671 14.4 75 5.2 101290 71
2004-02-24 12:41 51°26.638 2°37.839 11 78 5.2 101280 69
2004-02-24 12:42 51°26.419 2°37.988 17.5 82 5.2 101280 70
2004-02-24 12:43 51°26.201 2°38.144 16.4 86 5.2 101280 69
2004-02-24 12:44 51°25.98 2°38.303 14.6 81 5.2 101290 69
2004-02-24 12:45 51°25.767 2°38.459 11.5 71 5.2 101300 69
2004-02-24 12:46 51°25.557 2°38.632 12.9 79 5.3 101300 70
2004-02-24 12:47 51°25.345 2°38.802 12.1 66 5.2 101310 70
2004-02-24 12:48 51°25.122 2°38.932 14 66 5.3 101300 71
2004-02-24 12:49 51°24.901 2°39.059 11.8 63 5.3 101260 71
2004-02-24 12:50 51°24.681 2°39.191 14.6 67 5.2 101280 71
2004-02-24 12:51 51°24.454 2°39.314 15.3 52 5.2 101280 71
2004-02-24 12:52 51°24.225 2°39.389 16.4 60 5.1 101270 71
2004-02-24 12:53 51°23.992 2°39.407 16.7 54 5.1 101230 70
2004-02-24 12:54 51°23.759 2°39.405 16.4 50 5.1 101270 71
2004-02-24 12:55 51°23.536 2°39.31 18.7 32 5.1 101270 71
2004-02-24 12:56 51°23.326 2°39.167 17 32 5.1 101270 71
2004-02-24 12:57 51°23.129 2°38.992 18.2 19 5.1 101270 72
2004-02-24 12:58 51°22.935 2°38.815 20.4 33 5.1 101260 71
2004-02-24 12:59 51°22.736 2°38.663 19.8 30 5 101260 70
2004-02-24 13:00 51°22.522 2°38.558 17.6 39 5.1 101240 71
2004-02-24 13:01 51°22.296 2°38.535 19 60 5.1 101270 71
2004-02-24 13:02 51°22.07 2°38.597 13.3 60 5 101260 71
2004-02-24 13:03 51°21.851 2°38.717 11.9 75 5.1 101260 72
2004-02-24 13:04 51°21.64 2°38.874 13.4 73 5.1 101280 72
2004-02-24 13:05 51°21.427 2°39.036 13.9 81 5 101270 71
2004-02-24 13:06 51°21.237 2°39.258 12.4 81 5 101310 72
2004-02-24 13:07 51°21.07 2°39.52 11.3 97 5 101290 71
2004-02-24 13:08 51°20.931 2°39.824 9.6 114 5 101310 71
2004-02-24 13:09 51°20.826 2°40.163 8.8 119 5 101330 72
2004-02-24 13:10 51°20.728 2°40.506 7.1 102 5 101320 72
2004-02-24 13:11 51°20.635 2°40.864 9.2 108 5 101300 72
2004-02-24 13:12 51°20.545 2°41.219 10.2 108 5 101300 72
2004-02-24 13:13 51°20.462 2°41.588 9.3 115 5 101310 72
2004-02-24 13:14 51°20.366 2°41.946 10.8 103 5.1 101300 73
2004-02-24 13:15 51°20.273 2°42.312 7.8 117 5.1 101310 73
2004-02-24 13:16 51°20.185 2°42.681 8.2 107 5 101290 73
2004-02-24 13:17 51°20.095 2°43.039 11.4 105 5 101290 73
2004-02-24 13:18 51°20.011 2°43.388 10.3 120 5 101290 73
2004-02-24 13:19 51°19.925 2°43.738 11 121 5 101280 73
2004-02-24 13:20 51°19.842 2°44.09 9 104 4.9 101290 73
2004-02-24 13:21 51°19.758 2°44.445 10.9 103 5 101290 73
2004-02-24 13:22 51°19.676 2°44.802 9.2 114 4.9 101290 73
2004-02-24 13:23 51°19.596 2°45.157 10.3 108 5 101290 73
2004-02-24 13:24 51°19.508 2°45.524 8.2 117 5 101290 73
2004-02-24 13:25 51°19.425 2°45.898 10.7 120 5 101290 73
2004-02-24 13:26 51°19.347 2°46.268 9.5 116 4.9 101290 73
2004-02-24 13:27 51°19.272 2°46.621 9.9 120 4.9 101280 73
2004-02-24 13:28 51°19.198 2°46.981 9.9 112 4.9 101270 73
2004-02-24 13:29 51°19.11 2°47.337 10.9 108 5 101270 73
2004-02-24 13:30 51°19.027 2°47.705 9.7 102 5 101290 73
2004-02-24 13:31 51°18.94 2°48.053 9.6 104 5 101270 74
2004-02-24 13:32 51°18.837 2°48.4 10.8 108 5 101260 74
2004-02-24 13:33 51°18.734 2°48.753 9.5 106 4.9 101270 74
2004-02-24 13:34 51°18.636 2°49.11 11.3 114 4.9 101260 74
2004-02-24 13:35 51°18.538 2°49.467 8.5 109 4.9 101260 74
2004-02-24 13:36 51°18.441 2°49.832 11.3 116 5 101250 75
2004-02-24 13:37 51°18.348 2°50.19 11.9 115 4.9 101260 75
2004-02-24 13:38 51°18.259 2°50.547 10.8 111 4.9 101250 75
2004-02-24 13:39 51°18.154 2°50.889 11.7 107 4.8 101240 74
2004-02-24 13:40 51°18.026 2°51.217 13.1 101 4.8 101240 75
2004-02-24 13:41 51°17.899 2°51.548 9.7 92 4.9 101250 75
2004-02-24 13:42 51°17.766 2°51.866 11.4 91 4.9 101240 75
2004-02-24 13:43 51°17.608 2°52.142 11.1 88 4.8 101230 75
2004-02-24 13:44 51°17.441 2°52.392 12.3 80 4.8 101240 75
2004-02-24 13:45 51°17.241 2°52.57 16 75 4.9 101220 76
2004-02-24 13:46 51°17.046 2°52.739 13.2 74 4.8 101210 76
2004-02-24 13:47 51°16.848 2°52.917 14.9 70 4.8 101200 76
2004-02-24 13:48 51°16.65 2°53.078 15.4 65 4.8 101210 76
2004-02-24 13:49 51°16.437 2°53.206 17.1 57 4.8 101200 77
2004-02-24 13:50 51°16.234 2°53.331 14.7 65 4.8 101170 76
2004-02-24 13:51 51°16.029 2°53.467 17.6 64 4.8 101200 77
2004-02-24 13:52 51°15.823 2°53.598 14.5 72 4.7 101200 76
2004-02-24 13:53 51°15.62 2°53.735 15.5 67 4.7 101190 76
2004-02-24 13:54 51°15.462 2°53.852 11.4 66 4.7 101210 76
2004-02-24 13:55 51°15.296 2°53.979 14.8 67 4.7 101220 77
2004-02-24 13:56 51°15.091 2°54.109 16.8 62 4.6 101190 76
2004-02-24 13:57 51°14.896 2°54.255 13.6 60 4.6 101200 76
2004-02-24 13:58 51°14.694 2°54.405 14.1 68 4.6 101220 76
2004-02-24 13:59 51°14.53 2°54.661 11.8 103 4.6 101230 77
2004-02-24 14:00 51°14.398 2°54.975 10.4 98 4.6 101240 77
2004-02-24 14:01 51°14.271 2°55.247 11.7 107 4.6 101250 77
2004-02-24 14:02 51°14.152 2°55.401 13.1 86 4.6 101250 77
2004-02-24 14:03 51°14.037 2°55.489 11.1 88 4.6 101260 77
2004-02-24 14:04 51°13.932 2°55.568 13.2 49 4.6 101260 76
2004-02-24 14:05 51°13.826 2°55.646 4.9 41 4.6 101250 76
2004-02-24 14:06 51°13.737 2°55.739 8.4 88 4.7 101270 75
2004-02-24 14:07 51°13.672 2°55.866 4.5 76 4.7 101260 75
2004-02-24 14:08 51°13.626 2°55.991 7.5 138 4.7 101260 74
2004-02-24 14:09 51°13.597 2°56.088 8.6 127 4.7 101260 74
2004-02-24 14:10 51°13.592 2°56.105 8.3 146 4.6 101260 73
2004-02-24 14:11 51°13.593 2°56.106 7.8 142 4.6 101260 73